Location: Unspecified
(22.6800°N, 112.2000°E)
Time: 09:31:47
(UTC+08:00)

S-56A Canister/Altair - Pass Details

Date: 29 July 2021
Orbit: 632 x 2500 km, 38.9° (Epoch: 27 September)

Event Time Altitude Azimuth Distance (km) Brightness Sun altitude
Rises 21:06:02 0° 302° (WNW) 6,145 13.6 -23.8°
Reaches altitude 10° 21:10:25 10° 307° (NW) 5,040 12.7 -24.7°
Maximum altitude 21:24:15 57° 23° (NNE) 2,245 9.8 -27.3°
Enters shadow 21:29:11 35° 83° (E) 2,570 9.8 -28.2°
Drops below altitude 10° 21:34:00 10° 100° (E) 3,659 - -29.0°
Sets 21:36:39 0° 105° (ESE) 4,409 - -29.5°
